Location: Dal�� Lhota
(48.7500°N, 14.0167°E)
Time: 22:59:00
(UTC+00:00)

ARIANE 5 R/B - Pass Details

Date: 24 September 2020
Orbit: 620 x 657 km, 98.2° (Epoch: 09 October)

Event Time Altitude Azimuth Distance (km) Brightness Sun altitude
Exits shadow 20:20:05 31° 323° (NW) 1,093 4.3 -31.7°
Drops below altitude 10° 20:22:31 10° 338° (NNW) 1,999 5.9 -32.0°
Sets 20:24:45 0° 343° (NNW) 2,910 6.8 -32.2°
